Time,TemperatureF,DewpointF,PressureIn,WindDirection,WindDirectionDegrees,WindSpeedMPH,WindSpeedGustMPH,Humidity,HourlyPrecipIn,Conditions,Clouds,dailyrainin,SoftwareType,DateUTC
2013-02-21 00:02:00,15.4,5.7,29.55,West,270,0.0,2.0,65,0.00,,,0.00,meteohub,2013-02-21 07:02:00,
2013-02-21 00:07:00,15.4,5.7,29.55,West,270,0.0,2.0,65,0.00,,,0.00,meteohub,2013-02-21 07:07:00,
2013-02-21 00:12:00,15.4,5.7,29.55,West,270,0.0,2.0,65,0.00,,,0.00,meteohub,2013-02-21 07:12:00,
2013-02-21 00:17:00,15.4,5.7,29.54,West,270,0.0,1.0,65,0.00,,,0.00,meteohub,2013-02-21 07:17:00,
2013-02-21 00:22:00,15.4,5.7,29.54,West,270,0.0,1.0,65,0.00,,,0.00,meteohub,2013-02-21 07:22:00,
2013-02-21 00:27:00,15.3,5.5,29.54,West,270,0.0,1.0,65,0.00,,,0.00,meteohub,2013-02-21 07:27:00,
2013-02-21 00:32:00,15.3,5.5,29.54,West,270,1.0,0.0,65,0.00,,,0.00,meteohub,2013-02-21 07:32:00,
2013-02-21 00:37:00,15.3,5.5,29.54,West,270,0.0,2.0,65,0.00,,,0.00,meteohub,2013-02-21 07:37:00,
2013-02-21 00:42:00,15.3,5.5,29.54,West,270,0.0,2.0,65,0.00,,,0.00,meteohub,2013-02-21 07:42:00,
2013-02-21 00:47:00,15.3,5.5,29.54,West,270,0.0,2.0,65,0.00,,,0.00,meteohub,2013-02-21 07:47:00,
2013-02-21 00:52:00,15.1,5.4,29.54,SE,135,0.0,0.0,65,0.00,,,0.00,meteohub,2013-02-21 07:52:00,
2013-02-21 00:57:00,15.1,5.4,29.54,NW,315,0.0,0.0,65,0.00,,,0.00,meteohub,2013-02-21 07:57:00,
2013-02-21 01:02:00,15.3,5.5,29.54,NW,315,0.0,0.0,65,0.00,,,0.00,meteohub,2013-02-21 08:02:00,
2013-02-21 01:07:00,15.3,5.5,29.54,NW,315,0.0,0.0,65,0.00,,,0.00,meteohub,2013-02-21 08:07:00,
2013-02-21 01:12:00,15.3,5.5,29.54,West,270,0.0,0.0,65,0.00,,,0.00,meteohub,2013-02-21 08:12:00,
2013-02-21 01:17:00,15.1,5.4,29.54,West,270,0.0,0.0,65,0.00,,,0.00,meteohub,2013-02-21 08:17:00,
2013-02-21 01:22:00,15.1,5.4,29.54,West,270,0.0,0.0,65,0.00,,,0.00,meteohub,2013-02-21 08:22:00,
2013-02-21 01:27:00,15.1,5.4,29.54,West,270,0.0,0.0,65,0.00,,,0.00,meteohub,2013-02-21 08:27:00,
2013-02-21 01:32:00,15.1,5.4,29.54,West,270,0.0,0.0,65,0.00,,,0.00,meteohub,2013-02-21 08:32:00,
2013-02-21 01:37:00,15.1,5.4,29.54,NW,315,0.0,0.0,65,0.00,,,0.00,meteohub,2013-02-21 08:37:00,
2013-02-21 01:42:00,15.1,5.7,29.54,SW,225,1.0,3.0,66,0.00,,,0.00,meteohub,2013-02-21 08:42:00,
2013-02-21 01:47:00,15.1,5.7,29.54,West,270,1.0,3.0,66,0.00,,,0.00,meteohub,2013-02-21 08:47:00,
2013-02-21 01:52:00,15.1,5.7,29.54,West,270,2.0,3.0,66,0.00,,,0.00,meteohub,2013-02-21 08:52:00,
2013-02-21 01:57:00,15.1,5.7,29.54,West,270,2.0,3.0,66,0.00,,,0.00,meteohub,2013-02-21 08:57:00,
2013-02-21 02:02:00,15.1,5.4,29.54,West,270,1.0,3.0,65,0.00,,,0.00,meteohub,2013-02-21 09:02:00,
2013-02-21 02:07:00,15.1,5.4,29.54,West,270,3.0,3.0,65,0.00,,,0.00,meteohub,2013-02-21 09:07:00,
2013-02-21 02:12:00,14.9,5.2,29.54,West,270,2.0,5.0,65,0.00,,,0.00,meteohub,2013-02-21 09:12:00,
2013-02-21 02:17:00,14.9,5.2,29.54,South,180,3.0,5.0,65,0.00,,,0.00,meteohub,2013-02-21 09:17:00,
2013-02-21 02:22:00,14.7,5.2,29.53,WNW,293,4.0,5.0,65,0.00,,,0.00,meteohub,2013-02-21 09:22:00,
2013-02-21 02:27:00,14.7,5.2,29.54,NW,315,2.0,4.0,65,0.00,,,0.00,meteohub,2013-02-21 09:27:00,
2013-02-21 02:32:00,14.5,5.0,29.53,NW,315,2.0,7.0,65,0.00,,,0.00,meteohub,2013-02-21 09:32:00,
2013-02-21 02:37:00,14.5,5.0,29.53,SW,225,0.0,7.0,65,0.00,,,0.00,meteohub,2013-02-21 09:37:00,
2013-02-21 02:42:00,14.4,4.8,29.53,NW,315,2.0,7.0,65,0.00,,,0.00,meteohub,2013-02-21 09:42:00,
2013-02-21 02:47:00,14.4,4.8,29.53,SE,135,1.0,4.0,65,0.00,,,0.00,meteohub,2013-02-21 09:47:00,
2013-02-21 02:52:00,14.2,4.6,29.54,West,270,2.0,4.0,65,0.00,,,0.00,meteohub,2013-02-21 09:52:00,
2013-02-21 02:57:00,14.0,4.5,29.53,NW,315,2.0,4.0,65,0.00,,,0.00,meteohub,2013-02-21 09:57:00,
2013-02-21 03:02:00,14.0,4.5,29.53,SW,225,2.0,4.0,65,0.00,,,0.00,meteohub,2013-02-21 10:02:00,
2013-02-21 03:07:00,14.0,4.5,29.54,SW,225,2.0,4.0,65,0.00,,,0.00,meteohub,2013-02-21 10:07:00,
2013-02-21 03:12:00,14.0,4.5,29.53,NW,315,2.0,3.0,65,0.00,,,0.00,meteohub,2013-02-21 10:12:00,
2013-02-21 03:17:00,13.8,4.6,29.53,West,270,2.0,4.0,66,0.00,,,0.00,meteohub,2013-02-21 10:17:00,
2013-02-21 03:22:00,13.8,4.6,29.53,North,0,3.0,5.0,66,0.00,,,0.00,meteohub,2013-02-21 10:22:00,
2013-02-21 03:27:00,13.6,4.5,29.54,NW,315,4.0,5.0,66,0.00,,,0.00,meteohub,2013-02-21 10:27:00,
2013-02-21 03:32:00,13.5,4.3,29.53,NW,315,1.0,5.0,66,0.00,,,0.00,meteohub,2013-02-21 10:32:00,
2013-02-21 03:37:00,13.5,4.3,29.53,West,270,1.0,5.0,66,0.00,,,0.00,meteohub,2013-02-21 10:37:00,
2013-02-21 03:42:00,13.3,4.1,29.53,West,270,4.0,5.0,66,0.00,,,0.00,meteohub,2013-02-21 10:42:00,
2013-02-21 03:47:00,13.3,4.1,29.54,West,270,4.0,5.0,66,0.00,,,0.00,meteohub,2013-02-21 10:47:00,
2013-02-21 03:52:00,13.1,3.9,29.54,NW,315,3.0,5.0,66,0.00,,,0.00,meteohub,2013-02-21 10:52:00,
2013-02-21 03:57:00,13.1,3.9,29.54,NW,315,1.0,4.0,66,0.00,,,0.00,meteohub,2013-02-21 10:57:00,
2013-02-21 04:02:00,13.1,3.9,29.54,NW,315,2.0,4.0,66,0.00,,,0.00,meteohub,2013-02-21 11:02:00,
2013-02-21 04:07:00,13.1,3.9,29.54,NW,315,2.0,5.0,66,0.00,,,0.00,meteohub,2013-02-21 11:07:00,
2013-02-21 04:12:00,13.1,3.9,29.54,SW,225,1.0,5.0,66,0.00,,,0.00,meteohub,2013-02-21 11:12:00,
2013-02-21 04:17:00,13.1,3.9,29.54,West,270,6.0,6.0,66,0.00,,,0.00,meteohub,2013-02-21 11:17:00,
2013-02-21 04:22:00,13.1,3.9,29.54,NW,315,3.0,6.0,66,0.00,,,0.00,meteohub,2013-02-21 11:22:00,
2013-02-21 04:27:00,13.1,3.9,29.54,NW,315,2.0,6.0,66,0.00,,,0.00,meteohub,2013-02-21 11:27:00,
2013-02-21 04:32:00,13.1,3.9,29.54,West,270,5.0,6.0,66,0.00,,,0.00,meteohub,2013-02-21 11:32:00,
2013-02-21 04:37:00,13.1,3.9,29.55,NW,315,0.0,5.0,66,0.00,,,0.00,meteohub,2013-02-21 11:37:00,
2013-02-21 04:42:00,13.1,3.9,29.54,West,270,3.0,5.0,66,0.00,,,0.00,meteohub,2013-02-21 11:42:00,
2013-02-21 04:47:00,12.9,3.7,29.54,NW,315,4.0,5.0,66,0.00,,,0.00,meteohub,2013-02-21 11:47:00,
2013-02-21 04:52:00,12.9,3.7,29.54,West,270,1.0,4.0,66,0.00,,,0.00,meteohub,2013-02-21 11:52:00,
2013-02-21 04:57:00,12.9,3.7,29.55,West,270,2.0,4.0,66,0.00,,,0.00,meteohub,2013-02-21 11:57:00,
2013-02-21 05:02:00,12.9,3.7,29.55,WSW,248,1.0,4.0,66,0.00,,,0.00,meteohub,2013-02-21 12:02:00,
2013-02-21 05:07:00,12.9,3.7,29.55,WSW,248,1.0,4.0,66,0.00,,,0.00,meteohub,2013-02-21 12:07:00,
2013-02-21 05:12:00,12.9,3.7,29.55,ENE,68,1.0,6.0,66,0.00,,,0.00,meteohub,2013-02-21 12:12:00,
2013-02-21 05:17:00,12.9,3.7,29.55,SW,225,0.0,6.0,66,0.00,,,0.00,meteohub,2013-02-21 12:17:00,
2013-02-21 05:22:00,12.9,3.7,29.55,NW,315,2.0,6.0,66,0.00,,,0.00,meteohub,2013-02-21 12:22:00,
2013-02-21 05:27:00,12.9,3.7,29.55,NW,315,3.0,4.0,66,0.00,,,0.00,meteohub,2013-02-21 12:27:00,
2013-02-21 05:32:00,12.9,3.7,29.55,NW,315,4.0,4.0,66,0.00,,,0.00,meteohub,2013-02-21 12:32:00,
2013-02-21 05:37:00,12.9,3.7,29.55,SW,225,2.0,5.0,66,0.00,,,0.00,meteohub,2013-02-21 12:37:00,
2013-02-21 05:42:00,12.9,3.7,29.55,West,270,7.0,7.0,66,0.00,,,0.00,meteohub,2013-02-21 12:42:00,
2013-02-21 05:47:00,12.7,3.6,29.55,West,270,2.0,7.0,66,0.00,,,0.00,meteohub,2013-02-21 12:47:00,
2013-02-21 05:52:00,12.9,3.7,29.55,SW,225,3.0,7.0,66,0.00,,,0.00,meteohub,2013-02-21 12:52:00,
2013-02-21 05:57:00,12.7,3.6,29.55,NW,315,4.0,7.0,66,0.00,,,0.00,meteohub,2013-02-21 12:57:00,
2013-02-21 06:02:00,12.7,3.6,29.55,West,270,2.0,7.0,66,0.00,,,0.00,meteohub,2013-02-21 13:02:00,
2013-02-21 06:07:00,12.7,3.6,29.56,NW,315,4.0,7.0,66,0.00,,,0.00,meteohub,2013-02-21 13:07:00,
2013-02-21 06:12:00,12.7,3.6,29.56,NW,315,2.0,5.0,66,0.00,,,0.00,meteohub,2013-02-21 13:12:00,
2013-02-21 06:17:00,12.6,3.4,29.56,East,90,1.0,4.0,66,0.00,,,0.00,meteohub,2013-02-21 13:17:00,
2013-02-21 06:22:00,12.6,3.4,29.56,South,180,2.0,5.0,66,0.00,,,0.00,meteohub,2013-02-21 13:22:00,
2013-02-21 06:27:00,12.6,3.4,29.55,NW,315,7.0,7.0,66,0.00,,,0.00,meteohub,2013-02-21 13:27:00,
2013-02-21 06:32:00,12.4,3.2,29.56,North,0,4.0,7.0,66,0.00,,,0.00,meteohub,2013-02-21 13:32:00,
2013-02-21 06:37:00,12.4,3.2,29.56,NW,315,7.0,7.0,66,0.00,,,0.00,meteohub,2013-02-21 13:37:00,
2013-02-21 06:42:00,12.4,3.2,29.56,NW,315,1.0,7.0,66,0.00,,,0.00,meteohub,2013-02-21 13:42:00,
2013-02-21 06:47:00,12.4,3.2,29.56,NW,315,3.0,7.0,66,0.00,,,0.00,meteohub,2013-02-21 13:47:00,
2013-02-21 06:52:00,12.4,3.2,29.56,South,180,3.0,7.0,66,0.00,,,0.00,meteohub,2013-02-21 13:52:00,
2013-02-21 06:57:00,12.6,3.4,29.56,NW,315,3.0,4.0,66,0.00,,,0.00,meteohub,2013-02-21 13:57:00,
2013-02-21 07:02:00,12.6,3.4,29.57,SW,225,2.0,4.0,66,0.00,,,0.00,meteohub,2013-02-21 14:02:00,
2013-02-21 07:07:00,12.6,3.4,29.57,SW,225,2.0,3.0,66,0.00,,,0.00,meteohub,2013-02-21 14:07:00,
2013-02-21 07:12:00,12.7,3.6,29.57,North,0,1.0,6.0,66,0.00,,,0.00,meteohub,2013-02-21 14:12:00,
2013-02-21 07:17:00,12.7,3.6,29.57,West,270,2.0,6.0,66,0.00,,,0.00,meteohub,2013-02-21 14:17:00,
2013-02-21 07:22:00,12.9,3.7,29.57,West,270,2.0,6.0,66,0.00,,,0.00,meteohub,2013-02-21 14:22:00,
2013-02-21 07:27:00,13.1,3.9,29.57,WSW,248,1.0,5.0,66,0.00,,,0.00,meteohub,2013-02-21 14:27:00,
2013-02-21 07:32:00,13.3,4.1,29.58,South,180,2.0,5.0,66,0.00,,,0.00,meteohub,2013-02-21 14:32:00,
2013-02-21 07:37:00,13.5,4.3,29.58,NW,315,1.0,7.0,66,0.00,,,0.00,meteohub,2013-02-21 14:37:00,
2013-02-21 07:42:00,13.8,4.6,29.58,North,0,2.0,7.0,66,0.00,,,0.00,meteohub,2013-02-21 14:42:00,
2013-02-21 07:47:00,14.0,4.5,29.58,NW,315,5.0,7.0,65,0.00,,,0.00,meteohub,2013-02-21 14:47:00,
2013-02-21 07:52:00,14.2,4.6,29.58,West,270,4.0,6.0,65,0.00,,,0.00,meteohub,2013-02-21 14:52:00,
2013-02-21 07:57:00,14.4,4.8,29.58,NW,315,4.0,6.0,65,0.00,,,0.00,meteohub,2013-02-21 14:57:00,
2013-02-21 08:02:00,14.5,5.0,29.59,East,90,2.0,5.0,65,0.00,,,0.00,meteohub,2013-02-21 15:02:00,
2013-02-21 08:07:00,14.7,4.8,29.59,West,270,4.0,5.0,64,0.00,,,0.00,meteohub,2013-02-21 15:07:00,
2013-02-21 08:12:00,14.7,4.8,29.59,South,180,3.0,4.0,64,0.00,,,0.00,meteohub,2013-02-21 15:12:00,
2013-02-21 08:17:00,14.7,4.8,29.59,NW,315,3.0,5.0,64,0.00,,,0.00,meteohub,2013-02-21 15:17:00,
2013-02-21 08:22:00,14.9,5.0,29.59,West,270,2.0,5.0,64,0.00,,,0.00,meteohub,2013-02-21 15:22:00,
2013-02-21 08:27:00,14.9,4.6,29.59,NW,315,6.0,8.0,63,0.00,,,0.00,meteohub,2013-02-21 15:27:00,
2013-02-21 08:32:00,15.1,4.8,29.60,West,270,4.0,8.0,63,0.00,,,0.00,meteohub,2013-02-21 15:32:00,
2013-02-21 08:37:00,15.3,5.0,29.60,South,180,4.0,7.0,63,0.00,,,0.00,meteohub,2013-02-21 15:37:00,
2013-02-21 08:42:00,15.4,5.2,29.60,SW,225,2.0,7.0,63,0.00,,,0.00,meteohub,2013-02-21 15:42:00,
2013-02-21 08:47:00,15.6,5.4,29.60,NW,315,4.0,5.0,63,0.00,,,0.00,meteohub,2013-02-21 15:47:00,
2013-02-21 08:52:00,16.0,5.2,29.59,WNW,293,7.0,7.0,62,0.00,,,0.00,meteohub,2013-02-21 15:52:00,
2013-02-21 08:57:00,16.3,5.5,29.60,NW,315,4.0,7.0,62,0.00,,,0.00,meteohub,2013-02-21 15:57:00,
2013-02-21 09:02:00,16.3,5.5,29.60,West,270,4.0,7.0,62,0.00,,,0.00,meteohub,2013-02-21 16:02:00,
2013-02-21 09:07:00,16.3,5.5,29.60,West,270,4.0,7.0,62,0.00,,,0.00,meteohub,2013-02-21 16:07:00,
2013-02-21 09:12:00,17.1,6.3,29.60,East,90,2.0,5.0,62,0.00,,,0.00,meteohub,2013-02-21 16:12:00,
2013-02-21 09:17:00,17.2,6.1,29.60,NW,315,4.0,5.0,61,0.00,,,0.00,meteohub,2013-02-21 16:17:00,
2013-02-21 09:22:00,18.0,6.4,29.59,North,0,4.0,7.0,60,0.00,,,0.00,meteohub,2013-02-21 16:22:00,
2013-02-21 09:27:00,18.9,7.3,29.60,SW,225,2.0,7.0,60,0.00,,,0.00,meteohub,2013-02-21 16:27:00,
2013-02-21 09:32:00,19.6,9.3,29.60,West,270,6.0,6.0,64,0.00,,,0.00,meteohub,2013-02-21 16:32:00,
2013-02-21 09:37:00,19.8,9.1,29.60,West,270,3.0,8.0,63,0.00,,,0.00,meteohub,2013-02-21 16:37:00,
2013-02-21 09:42:00,19.6,9.0,29.60,NW,315,8.0,8.0,63,0.00,,,0.00,meteohub,2013-02-21 16:42:00,
2013-02-21 09:47:00,19.2,7.2,29.60,SE,135,3.0,10.0,59,0.00,,,0.00,meteohub,2013-02-21 16:47:00,
2013-02-21 09:52:00,19.0,6.6,29.60,SE,135,2.0,10.0,58,0.00,,,0.00,meteohub,2013-02-21 16:52:00,
2013-02-21 09:57:00,18.7,6.4,29.60,West,270,4.0,8.0,58,0.00,,,0.00,meteohub,2013-02-21 16:57:00,
2013-02-21 10:02:00,18.7,6.4,29.60,NW,315,4.0,8.0,58,0.00,,,0.00,meteohub,2013-02-21 17:02:00,
2013-02-21 10:07:00,18.7,6.4,29.60,NW,315,4.0,8.0,58,0.00,,,0.00,meteohub,2013-02-21 17:07:00,
2013-02-21 10:12:00,18.7,6.4,29.60,NNW,338,2.0,9.0,58,0.00,,,0.00,meteohub,2013-02-21 17:12:00,
2013-02-21 10:17:00,18.7,6.4,29.60,NW,315,1.0,11.0,58,0.00,,,0.00,meteohub,2013-02-21 17:17:00,
2013-02-21 10:22:00,18.7,6.4,29.60,NW,315,5.0,11.0,58,0.00,,,0.00,meteohub,2013-02-21 17:22:00,
2013-02-21 10:27:00,19.0,6.6,29.60,NW,315,3.0,11.0,58,0.00,,,0.00,meteohub,2013-02-21 17:27:00,
2013-02-21 10:32:00,19.4,8.6,29.60,NW,315,5.0,7.0,62,0.00,,,0.00,meteohub,2013-02-21 17:32:00,
2013-02-21 10:37:00,19.8,8.8,29.61,NW,315,7.0,8.0,62,0.00,,,0.00,meteohub,2013-02-21 17:37:00,
2013-02-21 10:42:00,19.9,8.6,29.61,SW,225,2.0,8.0,61,0.00,,,0.00,meteohub,2013-02-21 17:42:00,
2013-02-21 10:47:00,20.1,8.8,29.62,SE,135,5.0,8.0,61,0.00,,,0.00,meteohub,2013-02-21 17:47:00,
2013-02-21 10:52:00,20.3,9.0,29.62,WSW,248,3.0,8.0,61,0.00,,,0.00,meteohub,2013-02-21 17:52:00,
2013-02-21 10:57:00,20.7,9.3,29.61,West,270,4.0,8.0,61,0.00,,,0.00,meteohub,2013-02-21 17:57:00,
2013-02-21 11:02:00,20.8,9.1,29.61,NW,315,8.0,11.0,60,0.00,,,0.00,meteohub,2013-02-21 18:02:00,
2013-02-21 11:07:00,20.8,9.1,29.61,NW,315,8.0,11.0,60,0.00,,,0.00,meteohub,2013-02-21 18:07:00,
2013-02-21 11:12:00,21.7,9.3,29.61,East,90,6.0,11.0,58,0.00,,,0.00,meteohub,2013-02-21 18:12:00,
2013-02-21 11:17:00,21.6,9.1,29.61,NW,315,2.0,8.0,58,0.00,,,0.00,meteohub,2013-02-21 18:17:00,
2013-02-21 11:22:00,21.6,9.1,29.61,NW,315,8.0,8.0,58,0.00,,,0.00,meteohub,2013-02-21 18:22:00,
2013-02-21 11:27:00,21.7,8.8,29.61,NW,315,3.0,10.0,57,0.00,,,0.00,meteohub,2013-02-21 18:27:00,
2013-02-21 11:32:00,21.9,9.0,29.61,NW,315,5.0,10.0,57,0.00,,,0.00,meteohub,2013-02-21 18:32:00,
2013-02-21 11:37:00,22.3,9.3,29.61,West,270,7.0,10.0,57,0.00,,,0.00,meteohub,2013-02-21 18:37:00,
2013-02-21 11:42:00,22.5,9.5,29.62,NW,315,2.0,8.0,57,0.00,,,0.00,meteohub,2013-02-21 18:42:00,
2013-02-21 11:47:00,22.5,9.5,29.61,NW,315,4.0,11.0,57,0.00,,,0.00,meteohub,2013-02-21 18:47:00,
2013-02-21 11:52:00,23.0,9.7,29.61,NW,315,4.0,11.0,56,0.00,,,0.00,meteohub,2013-02-21 18:52:00,
2013-02-21 11:57:00,23.0,9.3,29.61,NW,315,7.0,12.0,55,0.00,,,0.00,meteohub,2013-02-21 18:57:00,
2013-02-21 12:02:00,23.2,9.3,29.61,NW,315,1.0,12.0,55,0.00,,,0.00,meteohub,2013-02-21 19:02:00,
2013-02-21 12:07:00,23.5,9.7,29.61,West,270,8.0,12.0,55,0.00,,,0.00,meteohub,2013-02-21 19:07:00,
2013-02-21 12:12:00,24.1,10.2,29.61,West,270,5.0,10.0,55,0.00,,,0.00,meteohub,2013-02-21 19:12:00,
2013-02-21 12:17:00,24.4,10.2,29.61,South,180,5.0,12.0,54,0.00,,,0.00,meteohub,2013-02-21 19:17:00,
2013-02-21 12:22:00,24.3,10.0,29.60,WNW,293,4.0,12.0,54,0.00,,,0.00,meteohub,2013-02-21 19:22:00,
2013-02-21 12:27:00,24.4,9.7,29.60,NW,315,9.0,12.0,53,0.00,,,0.00,meteohub,2013-02-21 19:27:00,
2013-02-21 12:32:00,24.1,9.9,29.61,WNW,293,8.0,10.0,54,0.00,,,0.00,meteohub,2013-02-21 19:32:00,
2013-02-21 12:37:00,24.3,10.0,29.61,West,270,6.0,9.0,54,0.00,,,0.00,meteohub,2013-02-21 19:37:00,
2013-02-21 12:42:00,24.3,10.0,29.61,South,180,3.0,9.0,54,0.00,,,0.00,meteohub,2013-02-21 19:42:00,
2013-02-21 12:47:00,24.8,10.0,29.61,SE,135,3.0,8.0,53,0.00,,,0.00,meteohub,2013-02-21 19:47:00,
2013-02-21 12:52:00,24.4,9.7,29.61,NW,315,3.0,10.0,53,0.00,,,0.00,meteohub,2013-02-21 19:52:00,
2013-02-21 12:57:00,25.0,9.9,29.61,NW,315,4.0,10.0,52,0.00,,,0.00,meteohub,2013-02-21 19:57:00,
2013-02-21 13:02:00,25.3,10.2,29.61,West,270,7.0,10.0,52,0.00,,,0.00,meteohub,2013-02-21 20:02:00,
2013-02-21 13:07:00,25.3,10.2,29.60,West,270,7.0,7.0,52,0.00,,,0.00,meteohub,2013-02-21 20:07:00,
2013-02-21 13:12:00,26.2,10.9,29.61,NW,315,3.0,8.0,52,0.00,,,0.00,meteohub,2013-02-21 20:12:00,
2013-02-21 13:17:00,26.2,10.6,29.61,SW,225,11.0,11.0,51,0.00,,,0.00,meteohub,2013-02-21 20:17:00,
2013-02-21 13:22:00,25.0,9.3,29.61,SSE,158,4.0,11.0,51,0.00,,,0.00,meteohub,2013-02-21 20:22:00,
2013-02-21 13:27:00,24.3,9.1,29.60,SE,135,4.0,11.0,52,0.00,,,0.00,meteohub,2013-02-21 20:27:00,
2013-02-21 13:32:00,23.7,8.6,29.61,West,270,9.0,11.0,52,0.00,,,0.00,meteohub,2013-02-21 20:32:00,
2013-02-21 13:37:00,24.1,9.5,29.61,West,270,2.0,11.0,53,0.00,,,0.00,meteohub,2013-02-21 20:37:00,
2013-02-21 13:42:00,24.3,9.7,29.61,SW,225,3.0,9.0,53,0.00,,,0.00,meteohub,2013-02-21 20:42:00,
2013-02-21 13:47:00,24.3,9.7,29.61,West,270,4.0,9.0,53,0.00,,,0.00,meteohub,2013-02-21 20:47:00,
2013-02-21 13:52:00,23.7,8.6,29.61,SW,225,4.0,8.0,52,0.00,,,0.00,meteohub,2013-02-21 20:52:00,
2013-02-21 13:57:00,23.4,8.8,29.61,SSW,203,5.0,10.0,53,0.00,,,0.00,meteohub,2013-02-21 20:57:00,
2013-02-21 14:02:00,23.0,8.4,29.62,SW,225,3.0,10.0,53,0.00,,,0.00,meteohub,2013-02-21 21:02:00,
2013-02-21 14:07:00,22.5,8.2,29.61,West,270,3.0,9.0,54,0.00,,,0.00,meteohub,2013-02-21 21:07:00,
2013-02-21 14:12:00,22.3,8.2,29.62,SE,135,2.0,9.0,54,0.00,,,0.00,meteohub,2013-02-21 21:12:00,
2013-02-21 14:17:00,22.8,9.1,29.62,West,270,3.0,9.0,55,0.00,,,0.00,meteohub,2013-02-21 21:17:00,
2013-02-21 14:22:00,23.4,9.1,29.62,NW,315,4.0,7.0,54,0.00,,,0.00,meteohub,2013-02-21 21:22:00,
2013-02-21 14:27:00,23.5,9.3,29.62,North,0,5.0,9.0,54,0.00,,,0.00,meteohub,2013-02-21 21:27:00,
2013-02-21 14:32:00,23.7,9.5,29.62,SSW,203,8.0,9.0,54,0.00,,,0.00,meteohub,2013-02-21 21:32:00,
2013-02-21 14:37:00,23.5,9.3,29.62,NW,315,4.0,10.0,54,0.00,,,0.00,meteohub,2013-02-21 21:37:00,
2013-02-21 14:42:00,23.7,9.5,29.62,NW,315,4.0,10.0,54,0.00,,,0.00,meteohub,2013-02-21 21:42:00,
2013-02-21 14:47:00,23.4,9.1,29.62,West,270,5.0,8.0,54,0.00,,,0.00,meteohub,2013-02-21 21:47:00,
2013-02-21 14:52:00,22.5,8.8,29.62,North,0,8.0,11.0,55,0.00,,,0.00,meteohub,2013-02-21 21:52:00,
2013-02-21 14:57:00,22.1,8.4,29.62,West,270,6.0,11.0,55,0.00,,,0.00,meteohub,2013-02-21 21:57:00,
2013-02-21 15:02:00,21.7,8.1,29.62,NW,315,5.0,8.0,55,0.00,,,0.00,meteohub,2013-02-21 22:02:00,
2013-02-21 15:07:00,21.7,8.1,29.62,NW,315,5.0,8.0,55,0.00,,,0.00,meteohub,2013-02-21 22:07:00,
2013-02-21 15:12:00,21.6,8.2,29.62,SW,225,2.0,7.0,56,0.00,,,0.00,meteohub,2013-02-21 22:12:00,
2013-02-21 15:17:00,21.9,8.6,29.62,NW,315,5.0,5.0,56,0.00,,,0.00,meteohub,2013-02-21 22:17:00,
2013-02-21 15:22:00,21.7,8.4,29.62,East,90,7.0,8.0,56,0.00,,,0.00,meteohub,2013-02-21 22:22:00,
2013-02-21 15:27:00,21.6,8.2,29.62,South,180,8.0,8.0,56,0.00,,,0.00,meteohub,2013-02-21 22:27:00,
2013-02-21 15:32:00,21.2,7.9,29.63,SW,225,5.0,8.0,56,0.00,,,0.00,meteohub,2013-02-21 22:32:00,
2013-02-21 15:37:00,21.0,7.7,29.63,West,270,4.0,8.0,56,0.00,,,0.00,meteohub,2013-02-21 22:37:00,
2013-02-21 15:42:00,21.0,8.2,29.63,NW,315,8.0,8.0,57,0.00,,,0.00,meteohub,2013-02-21 22:42:00,
2013-02-21 15:47:00,20.7,7.9,29.63,SW,225,3.0,8.0,57,0.00,,,0.00,meteohub,2013-02-21 22:47:00,
2013-02-21 15:52:00,20.5,8.1,29.62,East,90,3.0,8.0,58,0.00,,,0.00,meteohub,2013-02-21 22:52:00,
2013-02-21 15:57:00,20.3,7.9,29.63,WNW,293,2.0,8.0,58,0.00,,,0.00,meteohub,2013-02-21 22:57:00,
2013-02-21 16:02:00,20.3,7.9,29.63,NW,315,5.0,6.0,58,0.00,,,0.00,meteohub,2013-02-21 23:02:00,
2013-02-21 16:07:00,20.1,7.7,29.62,West,270,7.0,7.0,58,0.00,,,0.00,meteohub,2013-02-21 23:07:00,
2013-02-21 16:12:00,20.3,7.9,29.63,NW,315,8.0,8.0,58,0.00,,,0.00,meteohub,2013-02-21 23:12:00,
2013-02-21 16:17:00,20.8,8.8,29.62,NW,315,8.0,8.0,59,0.00,,,0.00,meteohub,2013-02-21 23:17:00,
2013-02-21 16:22:00,21.0,9.0,29.63,NW,315,7.0,8.0,59,0.00,,,0.00,meteohub,2013-02-21 23:22:00,
2013-02-21 16:27:00,20.8,8.8,29.63,East,90,5.0,8.0,59,0.00,,,0.00,meteohub,2013-02-21 23:27:00,
2013-02-21 16:32:00,20.3,8.2,29.63,NE,45,8.0,13.0,59,0.00,,,0.00,meteohub,2013-02-21 23:32:00,
2013-02-21 16:37:00,19.4,7.3,29.63,NW,315,8.0,13.0,59,0.00,,,0.00,meteohub,2013-02-21 23:37:00,
2013-02-21 16:42:00,18.7,5.2,29.63,West,270,7.0,13.0,55,0.00,,,0.00,meteohub,2013-02-21 23:42:00,
2013-02-21 16:47:00,18.3,4.8,29.63,NW,315,4.0,13.0,55,0.00,,,0.00,meteohub,2013-02-21 23:47:00,
2013-02-21 16:52:00,17.6,4.1,29.64,SW,225,3.0,11.0,55,0.00,,,0.00,meteohub,2013-02-21 23:52:00,
2013-02-21 16:57:00,17.1,4.5,29.64,North,0,4.0,11.0,57,0.00,,,0.00,meteohub,2013-02-21 23:57:00,
2013-02-21 17:02:00,16.7,4.1,29.64,West,270,12.0,12.0,57,0.00,,,0.00,meteohub,2013-02-22 00:02:00,
2013-02-21 17:07:00,16.7,4.1,29.64,West,270,12.0,12.0,57,0.00,,,0.00,meteohub,2013-02-22 00:07:00,
2013-02-21 17:12:00,16.0,3.7,29.65,West,270,2.0,12.0,58,0.00,,,0.00,meteohub,2013-02-22 00:12:00,
2013-02-21 17:17:00,15.6,4.3,29.65,South,180,3.0,12.0,60,0.00,,,0.00,meteohub,2013-02-22 00:17:00,
2013-02-21 17:22:00,15.4,4.1,29.65,West,270,5.0,12.0,60,0.00,,,0.00,meteohub,2013-02-22 00:22:00,
2013-02-21 17:27:00,15.3,3.9,29.65,WSW,248,8.0,8.0,60,0.00,,,0.00,meteohub,2013-02-22 00:27:00,
2013-02-21 17:32:00,14.9,3.6,29.65,SE,135,6.0,11.0,60,0.00,,,0.00,meteohub,2013-02-22 00:32:00,
2013-02-21 17:37:00,14.7,3.4,29.65,SW,225,6.0,11.0,60,0.00,,,0.00,meteohub,2013-02-22 00:37:00,
2013-02-21 17:42:00,14.7,3.4,29.65,SE,135,4.0,11.0,60,0.00,,,0.00,meteohub,2013-02-22 00:42:00,
2013-02-21 17:47:00,14.4,3.0,29.65,NW,315,2.0,7.0,60,0.00,,,0.00,meteohub,2013-02-22 00:47:00,
2013-02-21 17:52:00,14.2,2.8,29.65,SW,225,3.0,9.0,60,0.00,,,0.00,meteohub,2013-02-22 00:52:00,
2013-02-21 17:57:00,14.0,2.7,29.66,NW,315,5.0,9.0,60,0.00,,,0.00,meteohub,2013-02-22 00:57:00,
2013-02-21 18:02:00,13.8,3.2,29.66,SW,225,13.0,13.0,62,0.00,,,0.00,meteohub,2013-02-22 01:02:00,
2013-02-21 18:07:00,13.6,3.0,29.66,West,270,4.0,13.0,62,0.00,,,0.00,meteohub,2013-02-22 01:07:00,
2013-02-21 18:12:00,13.5,2.8,29.67,SE,135,2.0,13.0,62,0.00,,,0.00,meteohub,2013-02-22 01:12:00,
2013-02-21 18:17:00,13.3,2.7,29.67,West,270,2.0,13.0,62,0.00,,,0.00,meteohub,2013-02-22 01:17:00,
2013-02-21 18:22:00,13.1,2.5,29.67,South,180,2.0,6.0,62,0.00,,,0.00,meteohub,2013-02-22 01:22:00,
2013-02-21 18:27:00,12.9,2.3,29.67,SE,135,2.0,5.0,62,0.00,,,0.00,meteohub,2013-02-22 01:27:00,
2013-02-21 18:32:00,12.7,2.1,29.67,West,270,4.0,5.0,62,0.00,,,0.00,meteohub,2013-02-22 01:32:00,
2013-02-21 18:37:00,12.6,1.9,29.68,SE,135,2.0,5.0,62,0.00,,,0.00,meteohub,2013-02-22 01:37:00,
2013-02-21 18:42:00,12.6,1.9,29.68,NW,315,8.0,8.0,62,0.00,,,0.00,meteohub,2013-02-22 01:42:00,
2013-02-21 18:47:00,12.6,1.9,29.68,West,270,9.0,9.0,62,0.00,,,0.00,meteohub,2013-02-22 01:47:00,
2013-02-21 18:52:00,12.6,1.9,29.68,West,270,4.0,9.0,62,0.00,,,0.00,meteohub,2013-02-22 01:52:00,
2013-02-21 18:57:00,12.4,1.8,29.68,SW,225,5.0,9.0,62,0.00,,,0.00,meteohub,2013-02-22 01:57:00,
2013-02-21 19:02:00,12.4,1.8,29.69,SW,225,7.0,9.0,62,0.00,,,0.00,meteohub,2013-02-22 02:02:00,
2013-02-21 19:07:00,12.4,1.8,29.69,SW,225,7.0,8.0,62,0.00,,,0.00,meteohub,2013-02-22 02:07:00,
2013-02-21 19:12:00,12.2,1.9,29.69,West,270,2.0,7.0,63,0.00,,,0.00,meteohub,2013-02-22 02:12:00,
2013-02-21 19:17:00,12.2,1.9,29.69,SE,135,4.0,9.0,63,0.00,,,0.00,meteohub,2013-02-22 02:17:00,
2013-02-21 19:22:00,12.0,2.1,29.69,SW,225,2.0,9.0,64,0.00,,,0.00,meteohub,2013-02-22 02:22:00,
2013-02-21 19:27:00,12.0,2.1,29.69,WSW,248,8.0,9.0,64,0.00,,,0.00,meteohub,2013-02-22 02:27:00,
2013-02-21 19:32:00,12.0,2.1,29.69,WNW,293,2.0,8.0,64,0.00,,,0.00,meteohub,2013-02-22 02:32:00,
2013-02-21 19:37:00,11.8,1.9,29.69,SW,225,3.0,8.0,64,0.00,,,0.00,meteohub,2013-02-22 02:37:00,
2013-02-21 19:42:00,11.8,1.9,29.69,NW,315,2.0,8.0,64,0.00,,,0.00,meteohub,2013-02-22 02:42:00,
2013-02-21 19:47:00,11.8,1.9,29.69,NW,315,4.0,6.0,64,0.00,,,0.00,meteohub,2013-02-22 02:47:00,
2013-02-21 19:52:00,11.7,1.8,29.69,NW,315,2.0,6.0,64,0.00,,,0.00,meteohub,2013-02-22 02:52:00,
2013-02-21 19:57:00,11.7,1.8,29.69,North,0,2.0,7.0,64,0.00,,,0.00,meteohub,2013-02-22 02:57:00,
2013-02-21 20:02:00,11.5,1.8,29.69,WNW,293,5.0,7.0,64,0.00,,,0.00,meteohub,2013-02-22 03:02:00,
2013-02-21 20:07:00,11.5,1.8,29.70,NW,315,2.0,8.0,64,0.00,,,0.00,meteohub,2013-02-22 03:07:00,
2013-02-21 20:12:00,11.3,1.2,29.70,West,270,2.0,8.0,63,0.00,,,0.00,meteohub,2013-02-22 03:12:00,
2013-02-21 20:17:00,11.3,1.2,29.70,West,270,2.0,8.0,63,0.00,,,0.00,meteohub,2013-02-22 03:17:00,
2013-02-21 20:22:00,11.1,1.0,29.70,West,270,4.0,6.0,63,0.00,,,0.00,meteohub,2013-02-22 03:22:00,
2013-02-21 20:27:00,11.1,1.0,29.70,WNW,293,4.0,4.0,63,0.00,,,0.00,meteohub,2013-02-22 03:27:00,
2013-02-21 20:32:00,10.9,0.9,29.70,ESE,113,2.0,4.0,63,0.00,,,0.00,meteohub,2013-02-22 03:32:00,
2013-02-21 20:37:00,10.8,0.7,29.70,South,180,1.0,4.0,63,0.00,,,0.00,meteohub,2013-02-22 03:37:00,
2013-02-21 20:42:00,10.6,0.5,29.70,West,270,2.0,4.0,63,0.00,,,0.00,meteohub,2013-02-22 03:42:00,
2013-02-21 20:47:00,10.4,0.3,29.70,NE,45,1.0,4.0,63,0.00,,,0.00,meteohub,2013-02-22 03:47:00,
2013-02-21 20:52:00,10.2,-1.3,29.71,West,270,2.0,4.0,59,0.00,,,0.00,meteohub,2013-02-22 03:52:00,
2013-02-21 20:57:00,10.0,-1.5,29.71,WNW,293,2.0,4.0,59,0.00,,,0.00,meteohub,2013-02-22 03:57:00,
2013-02-21 21:02:00,10.0,-1.5,29.71,SW,225,2.0,4.0,59,0.00,,,0.00,meteohub,2013-02-22 04:02:00,
2013-02-21 21:07:00,9.9,-1.7,29.71,NW,315,2.0,4.0,59,0.00,,,0.00,meteohub,2013-02-22 04:07:00,
2013-02-21 21:12:00,9.7,-1.8,29.71,SE,135,1.0,4.0,59,0.00,,,0.00,meteohub,2013-02-22 04:12:00,
2013-02-21 21:17:00,9.7,-1.8,29.71,SW,225,3.0,3.0,59,0.00,,,0.00,meteohub,2013-02-22 04:17:00,
2013-02-21 21:22:00,9.5,-2.0,29.71,SE,135,1.0,4.0,59,0.00,,,0.00,meteohub,2013-02-22 04:22:00,
2013-02-21 21:27:00,9.3,-2.0,29.71,West,270,1.0,4.0,59,0.00,,,0.00,meteohub,2013-02-22 04:27:00,
2013-02-21 21:32:00,9.1,-2.2,29.71,West,270,2.0,4.0,59,0.00,,,0.00,meteohub,2013-02-22 04:32:00,
2013-02-21 21:38:00,9.1,-2.2,29.72,West,270,1.0,2.0,59,0.00,,,0.00,meteohub,2013-02-22 04:38:00,
2013-02-21 21:43:00,9.1,-2.2,29.71,NW,315,2.0,2.0,59,0.00,,,0.00,meteohub,2013-02-22 04:43:00,
2013-02-21 21:48:00,9.1,-2.2,29.71,West,270,2.0,2.0,59,0.00,,,0.00,meteohub,2013-02-22 04:48:00,
2013-02-21 21:53:00,9.0,-2.4,29.71,West,270,3.0,3.0,59,0.00,,,0.00,meteohub,2013-02-22 04:53:00,
2013-02-21 21:58:00,8.8,-2.6,29.71,West,270,2.0,4.0,59,0.00,,,0.00,meteohub,2013-02-22 04:58:00,
2013-02-21 22:00:00,8.8,-2.6,29.71,West,270,3.0,4.0,59,0.00,,,0.00,meteohub,2013-02-22 05:00:00,
2013-02-21 22:01:00,8.8,-2.6,29.71,West,270,2.0,4.0,59,0.00,,,0.00,meteohub,2013-02-22 05:01:00,
2013-02-21 22:02:00,8.6,-2.7,29.71,West,270,2.0,4.0,59,0.00,,,0.00,meteohub,2013-02-22 05:02:00,
2013-02-21 22:07:00,8.2,-3.1,29.71,West,270,2.0,4.0,59,0.00,,,0.00,meteohub,2013-02-22 05:07:00,
2013-02-21 22:12:00,7.9,-3.5,29.71,NW,315,2.0,3.0,59,0.00,,,0.00,meteohub,2013-02-22 05:12:00,
2013-02-21 22:18:00,7.7,-3.6,29.71,West,270,2.0,5.0,59,0.00,,,0.00,meteohub,2013-02-22 05:18:00,
2013-02-21 22:23:00,7.5,-3.8,29.71,East,90,0.0,5.0,59,0.00,,,0.00,meteohub,2013-02-22 05:23:00,
2013-02-21 22:28:00,7.3,-4.0,29.71,West,270,2.0,5.0,59,0.00,,,0.00,meteohub,2013-02-22 05:28:00,
2013-02-21 22:33:00,7.2,-4.2,29.72,NW,315,2.0,4.0,59,0.00,,,0.00,meteohub,2013-02-22 05:33:00,
2013-02-21 22:38:00,7.2,-4.2,29.71,NW,315,2.0,3.0,59,0.00,,,0.00,meteohub,2013-02-22 05:38:00,
2013-02-21 22:43:00,7.0,-4.4,29.71,NW,315,1.0,3.0,59,0.00,,,0.00,meteohub,2013-02-22 05:43:00,
2013-02-21 22:48:00,7.0,-4.4,29.71,NW,315,1.0,3.0,59,0.00,,,0.00,meteohub,2013-02-22 05:48:00,
2013-02-21 22:53:00,7.2,-4.2,29.72,West,270,4.0,4.0,59,0.00,,,0.00,meteohub,2013-02-22 05:53:00,
2013-02-21 22:58:00,7.2,-4.2,29.71,South,180,0.0,4.0,59,0.00,,,0.00,meteohub,2013-02-22 05:58:00,
2013-02-21 23:03:00,7.2,-4.2,29.72,West,270,1.0,4.0,59,0.00,,,0.00,meteohub,2013-02-22 06:03:00,
2013-02-21 23:08:00,7.3,-3.6,29.72,West,270,0.0,4.0,60,0.00,,,0.00,meteohub,2013-02-22 06:08:00,
2013-02-21 23:14:00,7.5,-3.5,29.71,NW,315,2.0,2.0,60,0.00,,,0.00,meteohub,2013-02-22 06:14:00,
2013-02-21 23:19:00,7.7,-3.3,29.72,West,270,2.0,2.0,60,0.00,,,0.00,meteohub,2013-02-22 06:19:00,
2013-02-21 23:24:00,7.7,-3.3,29.72,NW,315,2.0,2.0,60,0.00,,,0.00,meteohub,2013-02-22 06:24:00,
2013-02-21 23:29:00,7.9,-3.1,29.72,West,270,2.0,4.0,60,0.00,,,0.00,meteohub,2013-02-22 06:29:00,
2013-02-21 23:34:00,8.1,-2.9,29.72,West,270,5.0,5.0,60,0.00,,,0.00,meteohub,2013-02-22 06:34:00,
2013-02-21 23:39:00,8.1,-2.9,29.72,West,270,4.0,6.0,60,0.00,,,0.00,meteohub,2013-02-22 06:39:00,
2013-02-21 23:44:00,8.1,-2.9,29.72,West,270,2.0,6.0,60,0.00,,,0.00,meteohub,2013-02-22 06:44:00,
2013-02-21 23:49:00,8.1,-2.9,29.71,NW,315,2.0,6.0,60,0.00,,,0.00,meteohub,2013-02-22 06:49:00,
2013-02-21 23:54:00,8.1,-2.9,29.71,West,270,3.0,4.0,60,0.00,,,0.00,meteohub,2013-02-22 06:54:00,
2013-02-21 23:59:00,7.9,-3.1,29.71,West,270,1.0,4.0,60,0.00,,,0.00,meteohub,2013-02-22 06:59:00,